TimePDT,TemperatureF,Dew PointF,Humidity,Sea Level PressureIn,VisibilityMPH,Wind Direction,Wind SpeedMPH,Gust SpeedMPH,PrecipitationIn,Events,Conditions,WindDirDegrees,DateUTC
12:58 AM,50.4,49.6,97,29.94,10.0,SSE,5.8,-,N/A,,Overcast,160,2013-03-21 07:58:00
1:58 AM,51.8,50.7,96,29.94,10.0,South,5.8,-,N/A,,Clear,170,2013-03-21 08:58:00
2:58 AM,49.8,49.1,97,29.91,10.0,SSE,3.5,-,N/A,,Overcast,160,2013-03-21 09:58:00
3:58 AM,46.8,46.8,100,29.91,10.0,SSE,3.5,-,N/A,,Clear,150,2013-03-21 10:58:00
4:58 AM,48.0,48.0,100,29.90,10.0,East,1.2,-,N/A,,Clear,100,2013-03-21 11:58:00
5:58 AM,48.7,48.7,100,29.89,10.0,ESE,4.6,-,N/A,,Clear,110,2013-03-21 12:58:00
6:58 AM,47.8,47.8,100,29.89,9.0,ESE,2.3,-,N/A,,Clear,120,2013-03-21 13:58:00
7:58 AM,50.2,50.2,100,29.91,10.0,East,2.3,-,N/A,,Clear,80,2013-03-21 14:58:00
8:58 AM,54.3,52.2,92,29.93,10.0,Calm,Calm,-,N/A,,Clear,0,2013-03-21 15:58:00
9:58 AM,58.3,52.2,80,29.91,10.0,Variable,4.6,-,N/A,,Clear,0,2013-03-21 16:58:00
10:58 AM,62.2,53.6,73,29.90,10.0,Calm,Calm,-,N/A,,Clear,0,2013-03-21 17:58:00
11:58 AM,66.7,54.9,66,29.88,10.0,Variable,3.5,-,N/A,,Clear,0,2013-03-21 18:58:00
12:58 PM,69.8,54.9,59,29.86,10.0,WSW,4.6,-,N/A,,Scattered Clouds,250,2013-03-21 19:58:00
1:58 PM,71.6,54.3,54,29.84,10.0,WNW,9.2,-,N/A,,Scattered Clouds,300,2013-03-21 20:58:00
2:58 PM,72.5,54.5,53,29.82,10.0,NNW,9.2,-,N/A,,Scattered Clouds,340,2013-03-21 21:58:00
3:58 PM,72.3,55.0,54,29.82,10.0,NW,10.4,-,N/A,,Clear,320,2013-03-21 22:58:00
4:58 PM,70.3,54.5,57,29.81,10.0,WNW,9.2,-,N/A,,Partly Cloudy,300,2013-03-21 23:58:00
5:58 PM,68.7,53.2,58,29.79,10.0,NW,9.2,-,N/A,,Clear,310,2013-03-22 00:58:00
6:58 PM,64.0,51.8,64,29.81,10.0,WNW,11.5,-,N/A,,Clear,300,2013-03-22 01:58:00
7:58 PM,58.6,51.6,77,29.80,10.0,WNW,8.1,-,N/A,,Clear,300,2013-03-22 02:58:00
8:58 PM,54.9,50.4,85,29.82,10.0,NNW,5.8,-,N/A,,Clear,330,2013-03-22 03:58:00
9:58 PM,52.0,48.2,87,29.83,10.0,NW,3.5,-,N/A,,Clear,310,2013-03-22 04:58:00
10:58 PM,52.5,49.5,89,29.83,10.0,West,2.3,-,N/A,,Clear,280,2013-03-22 05:58:00
11:58 PM,51.4,49.5,93,29.83,10.0,West,5.8,-,N/A,,Clear,260,2013-03-22 06:58:00